CW2969 Weather Reports


time (UTC)temp
F
wind
direction
speed
knots
gust
knots
rain 1hr
in
rain 24hr
in
rain mn
in
humidity
%
barometer
mb
20260903235508 91 114 1.7 7.8 0.00 0.00 0.00 58 1009.8
20260903235007 91 147 4.3 13.0 0.00 0.00 0.00 58 1009.8
20260903234507 91 132 2.6 13.0 0.00 0.00 0.00 58 1009.8
20260903234008 91 121 0.9 7.8 0.00 0.00 0.00 57 1009.8
20260903233508 91 138 2.6 7.0 0.00 0.00 0.00 57 1009.7
20260903233007 92 209 2.6 7.8 0.00 0.00 0.00 57 1009.6
20260903232507 92 141 7.8 12.2 0.00 0.00 0.00 56 1009.5
20260903232008 92 195 4.3 12.2 0.00 0.00 0.00 55 1009.6
20260903231508 93 123 1.7 8.7 0.00 0.00 0.00 57 1009.6
20260903231007 92 120 6.1 11.3 0.00 0.00 0.00 57 1009.5
20260903225507 92 123 4.3 10.4 0.00 0.00 0.00 56 1009.4
20260903225008 93 61 7.0 11.3 0.00 0.00 0.00 56 1009.3
20260903224507 93 112 6.1 11.3 0.00 0.00 0.00 55 1009.3
20260903224007 94 83 10.4 11.3 0.00 0.00 0.00 55 1009.2
20260903223007 95 128 9.6 13.0 0.00 0.00 0.00 49 1009.2
20260903222507 96 163 3.5 13.9 0.00 0.00 0.00 47 1009.1
20260903222007 96 156 6.1 13.9 0.00 0.00 0.00 47 1009.0
20260903221507 96 80 1.7 13.0 0.00 0.00 0.00 47 1008.9
20260903221007 96 109 3.5 13.0 0.00 0.00 0.00 47 1008.9
20260903220006 96 86 7.0 7.0 0.00 0.00 0.00 47 1008.9
20260903215507 97 148 4.3 6.1 0.00 0.00 0.00 46 1009.0
20260903215006 97 360 1.7 10.4 0.00 0.00 0.00 46 1009.0
20260903214006 98 86 7.0 12.2 0.00 0.00 0.00 45 1009.0
20260903213507 99 100 2.6 13.0 0.00 0.00 0.00 45 1009.0
20260903212506 100 101 1.7 8.7 0.00 0.00 0.00 43 1008.9
20260903212006 100 155 2.6 8.7 0.00 0.00 0.00 44 1008.9
20260903211506 99 169 3.5 3.5 0.00 0.00 0.00 44 1008.9
20260903211006 99 192 0.9 2.6 0.00 0.00 0.00 45 1009.0
20260903210506 99 111 0.9 3.5 0.00 0.00 0.00 45 1009.2
20260903205506 99 141 0.9 10.4 0.00 0.00 0.00 45 1009.2
20260903205006 99 126 3.5 10.4 0.00 0.00 0.00 45 1009.4
20260903204506 99 96 0.9 6.1 0.00 0.00 0.00 46 1009.3
20260903204006 99 130 6.1 7.0 0.00 0.00 0.00 46 1009.5
20260903203506 99 199 4.3 7.0 0.00 0.00 0.00 46 1009.5
20260903203006 99 188 0.9 1.7 0.00 0.00 0.00 46 1009.6
20260903202506 99 134 0.9 2.6 0.00 0.00 0.00 47 1009.7
20260903202006 99 153 2.6 2.6 0.00 0.00 0.00 47 1009.8
20260903201506 99 90 0.9 5.2 0.00 0.00 0.00 47 1009.8
20260903201006 99 72 0.9 10.4 0.00 0.00 0.00 47 1009.8
20260903200506 99 159 4.3 10.4 0.00 0.00 0.00 47 1009.8
20260903195505 100 112 6.1 11.3 0.00 0.00 0.00 47 1010.0
20260903195006 100 119 9.6 11.3 0.00 0.00 0.00 47 1010.0
20260903194506 100 172 1.7 7.0 0.00 0.00 0.00 47 1010.0
20260903194005 100 130 3.5 7.0 0.00 0.00 0.00 47 1010.1
20260903193505 100 86 3.5 3.5 0.00 0.00 0.00 48 1010.2
20260903193005 99 284 1.7 7.0 0.00 0.00 0.00 48 1010.3
20260903192505 99 138 7.0 7.0 0.00 0.00 0.00 49 1010.4
20260903191005 98 19 2.6 9.6 0.00 0.00 0.00 50 1010.5
20260903190505 97 148 5.2 9.6 0.00 0.00 0.00 50 1010.6
20260903190005 97 142 5.2 6.1 0.00 0.00 0.00 51 1010.8
20260903185505 97 119 0.9 2.6 0.00 0.00 0.00 51 1010.8
20260903184004 97 140 3.5 7.8 0.00 0.00 0.00 53 1011.1
20260903183504 96 297 1.7 3.5 0.00 0.00 0.00 54 1011.2
20260903183005 96 324 1.7 7.8 0.00 0.00 0.00 54 1011.3
20260903182505 95 253 3.5 7.8 0.00 0.00 0.00 55 1011.3
20260903182004 95 137 6.1 7.8 0.00 0.00 0.00 56 1011.3
20260903181504 95 170 3.5 7.0 0.00 0.00 0.00 56 1011.5
20260903180504 95 194 1.7 7.0 0.00 0.00 0.00 56 1011.6
20260903180004 94 107 3.5 4.3 0.00 0.00 0.00 57 1011.7
20260903175504 95 244 3.5 4.3 0.00 0.00 0.00 56 1011.7
20260903175004 94 169 0.9 9.6 0.00 0.00 0.00 57 1011.8
20260903174504 94 155 7.0 9.6 0.00 0.00 0.00 57 1011.8
20260903174004 94 205 3.5 4.3 0.00 0.00 0.00 59 1011.8
20260903173504 94 270 1.7 7.8 0.00 0.00 0.00 59 1011.9
20260903173004 94 104 7.0 7.8 0.00 0.00 0.00 59 1011.9
20260903172504 94 290 1.7 6.1 0.00 0.00 0.00 60 1012.0
20260903172004 93 134 3.5 3.5 0.00 0.00 0.00 61 1012.0
20260903171503 93 325 1.7 7.8 0.00 0.00 0.00 61 1012.2
20260903171003 93 180 4.3 8.7 0.00 0.00 0.00 61 1012.2
20260903170033 92 216 3.5 14.8 0.00 0.00 0.00 62 1012.2
20260903165503 92 233 1.7 4.3 0.00 0.00 0.00 63 1012.3
20260903165003 92 115 3.5 8.7 0.00 0.00 0.00 63 1012.3
20260903164503 92 252 3.5 8.7 0.00 0.00 0.00 63 1012.4
20260903164004 91 148 3.5 7.0 0.00 0.00 0.00 64 1012.4
20260903163533 91 239 2.6 7.0 0.00 0.00 0.00 64 1012.4
20260903163033 91 171 1.7 7.0 0.00 0.00 0.00 65 1012.5
20260903162033 90 205 0.9 7.0 0.00 0.00 0.00 67 1012.5
20260903161033 90 292 2.6 8.7 0.00 0.00 0.00 68 1012.6
20260903160533 90 119 1.7 7.0 0.00 0.00 0.00 69 1012.4
20260903160033 89 281 0.0 5.2 0.00 0.00 0.00 69 1012.3
20260903155533 89 209 1.7 5.2 0.00 0.00 0.00 69 1012.4
20260903154533 88 254 0.9 6.1 0.00 0.00 0.00 70 1012.5
20260903154032 88 223 2.6 9.6 0.00 0.00 0.00 71 1012.4
20260903153532 87 196 2.6 9.6 0.00 0.00 0.00 72 1012.4
20260903152032 86 171 1.7 4.3 0.00 0.00 0.00 73 1012.4
20260903151532 86 274 2.6 4.3 0.00 0.00 0.00 74 1012.5
20260903151032 86 293 0.9 6.1 0.00 0.00 0.00 74 1012.5
20260903150532 86 135 2.6 10.4 0.00 0.00 0.00 73 1012.4
20260903150032 86 234 4.3 10.4 0.00 0.00 0.00 73 1012.4
20260903145532 86 306 2.6 7.0 0.00 0.00 0.00 74 1012.4
20260903145032 86 187 1.7 6.1 0.00 0.00 0.00 74 1012.4
20260903144532 86 267 3.5 6.1 0.00 0.00 0.00 74 1012.4
20260903144032 86 28 2.6 6.1 0.00 0.00 0.00 75 1012.4
20260903143532 86 162 3.5 6.1 0.00 0.00 0.00 75 1012.3
20260903143032 86 212 3.5 7.8 0.00 0.00 0.00 75 1012.3
20260903142532 85 171 4.3 7.8 0.00 0.00 0.00 75 1012.2
20260903142031 85 270 1.7 6.1 0.00 0.00 0.00 76 1012.3
20260903141532 85 236 1.7 11.3 0.00 0.00 0.00 76 1012.3
20260903141031 85 226 4.3 11.3 0.00 0.00 0.00 76 1012.4
20260903140531 84 309 1.7 8.7 0.00 0.00 0.00 77 1012.4
20260903140031 84 128 1.7 4.3 0.00 0.00 0.00 77 1012.4
20260903135031 84 269 0.9 6.1 0.00 0.00 0.00 78 1012.5
20260903134531 84 307 1.7 7.8 0.00 0.00 0.00 78 1012.5
20260903134031 84 159 4.3 7.8 0.00 0.00 0.00 78 1012.5
20260903133031 83 236 2.6 6.1 0.00 0.00 0.00 79 1012.5
20260903132531 83 228 1.7 6.1 0.00 0.00 0.00 79 1012.6
20260903132031 83 130 2.6 6.1 0.00 0.00 0.00 79 1012.6
20260903131531 83 212 0.0 3.5 0.00 0.00 0.00 80 1012.5
20260903131031 83 201 1.7 4.3 0.00 0.00 0.00 79 1012.5
20260903130531 83 226 3.5 4.3 0.00 0.00 0.00 80 1012.5
20260903130031 82 247 0.9 4.3 0.00 0.00 0.00 80 1012.5
20260903125531 82 200 1.7 4.3 0.00 0.00 0.00 80 1012.5
20260903124530 82 150 0.0 4.3 0.00 0.00 0.00 80 1012.4
20260903124031 82 184 2.6 4.3 0.00 0.00 0.00 80 1012.3
20260903123531 82 223 1.7 2.6 0.00 0.00 0.00 80 1012.3
20260903123030 82 161 1.7 2.6 0.00 0.00 0.00 80 1012.2
20260903122530 82 240 1.7 4.3 0.00 0.00 0.00 80 1012.2
20260903122031 82 199 2.6 4.3 0.00 0.00 0.00 80 1012.2
20260903121031 82 228 2.6 5.2 0.00 0.00 0.00 80 1012.0
20260903120530 82 176 0.0 5.2 0.00 0.00 0.00 80 1012.1
20260903120030 82 205 1.7 5.2 0.00 0.00 0.00 80 1012.1
20260903115530 82 283 1.7 3.5 0.00 0.00 0.00 80 1012.1
20260903115030 82 212 0.9 4.3 0.00 0.00 0.00 80 1012.1
20260903114530 82 159 3.5 4.3 0.00 0.00 0.00 80 1012.1
20260903114030 82 210 1.7 5.2 0.00 0.00 0.00 80 1012.0
20260903113530 82 296 0.9 5.2 0.00 0.00 0.00 80 1011.9
20260903112530 82 208 2.6 4.3 0.00 0.00 0.00 80 1011.9
20260903112030 82 205 2.6 4.3 0.00 0.00 0.00 80 1011.9
20260903111530 82 210 0.0 3.5 0.00 0.00 0.00 80 1011.9
20260903111030 82 169 3.5 3.5 0.00 0.00 0.00 80 1011.9
20260903110030 82 292 0.0 4.3 0.00 0.00 0.00 80 1012.0
20260903105530 82 143 2.6 4.3 0.00 0.00 0.00 80 1012.0
20260903105030 82 180 2.6 4.3 0.00 0.00 0.00 80 1011.9
20260903104530 82 234 3.5 4.3 0.00 0.00 0.00 80 1011.9
20260903104029 82 211 1.7 6.1 0.00 0.00 0.00 80 1011.8
20260903103529 82 148 0.9 6.1 0.00 0.00 0.00 80 1011.7
20260903103029 82 125 0.0 6.1 0.00 0.00 0.00 80 1011.7
20260903102529 82 162 0.9 6.1 0.00 0.00 0.00 80 1011.7
20260903102029 82 198 2.6 3.5 0.00 0.00 0.00 80 1011.8
20260903100529 82 130 2.6 3.5 0.00 0.00 0.00 80 1011.7
20260903100029 82 203 1.7 3.5 0.00 0.00 0.00 80 1011.7
20260903095029 82 165 0.9 3.5 0.00 0.00 0.00 80 1011.8
20260903094529 82 194 2.6 3.5 0.00 0.00 0.00 80 1011.9
20260903094029 82 259 0.9 3.5 0.00 0.00 0.00 80 1011.9
20260903093529 82 120 1.7 3.5 0.00 0.00 0.00 80 1011.9
20260903093029 82 159 0.0 3.5 0.00 0.00 0.00 80 1012.0
20260903092029 82 209 1.7 2.6 0.00 0.00 0.00 79 1012.0
20260903091529 82 202 0.9 1.7 0.00 0.00 0.00 79 1012.1
20260903091030 82 165 0.0 2.6 0.00 0.00 0.00 79 1011.9
20260903090529 82 209 1.7 6.1 0.00 0.00 0.00 79 1012.1
20260903090028 82 129 6.1 6.1 0.00 0.00 0.00 79 1012.1
20260903085528 82 208 3.5 5.2 0.00 0.00 0.00 79 1012.1
20260903085028 82 202 0.9 4.3 0.00 0.00 0.00 79 1012.1
20260903084528 82 203 2.6 4.3 0.00 0.00 0.00 78 1012.1
20260903084028 82 50 1.7 6.1 0.00 0.00 0.00 78 1012.0
20260903083528 82 161 0.9 6.1 0.00 0.00 0.00 78 1012.0
20260903083028 82 169 0.9 2.6 0.00 0.00 0.00 78 1012.0
20260903082528 83 213 0.9 5.2 0.00 0.00 0.00 78 1012.0
20260903082028 83 241 1.7 5.2 0.00 0.00 0.00 78 1012.0
20260903081528 83 226 0.0 6.1 0.00 0.00 0.00 78 1012.0
20260903081028 83 113 0.0 6.1 0.00 0.00 0.00 77 1011.9
20260903080528 83 236 0.9 4.3 0.00 0.00 0.00 77 1012.0
20260903080028 83 217 3.5 4.3 0.00 0.00 0.00 77 1012.1
20260903074528 83 170 0.0 4.3 0.00 0.00 0.00 76 1012.2
20260903074028 83 128 0.0 4.3 0.00 0.00 0.00 76 1012.2
20260903073528 83 169 0.0 7.0 0.00 0.00 0.00 75 1012.3
20260903073027 83 141 0.9 7.0 0.00 0.00 0.00 75 1012.3
20260903072527 83 207 1.7 3.5 0.00 0.00 0.00 75 1012.3
20260903072027 83 155 0.0 3.5 0.00 0.00 0.00 75 1012.3
20260903071527 83 209 3.5 3.5 0.00 0.00 0.00 74 1012.3
20260903071027 84 173 2.6 6.1 0.00 0.00 0.00 74 1012.3
20260903070527 84 206 1.7 6.1 0.00 0.00 0.00 74 1012.4
20260903070027 84 135 1.7 3.5 0.00 0.00 0.00 73 1012.3
20260903065527 84 223 0.9 4.3 0.00 0.00 0.00 73 1012.4
20260903064527 84 107 3.5 4.3 0.00 0.00 0.00 72 1012.4
20260903063527 84 190 0.0 6.1 0.00 0.00 0.00 71 1012.5
20260903063027 84 132 0.9 6.1 0.00 0.00 0.00 71 1012.5
20260903062527 84 111 0.9 5.2 0.00 0.00 0.00 71 1012.5
20260903062027 85 222 2.6 5.2 0.00 0.00 0.00 70 1012.4
20260903061527 85 132 0.9 3.5 0.00 0.00 0.00 70 1012.4
20260903061026 85 134 3.5 3.5 0.00 0.00 0.00 69 1012.4
20260903060526 85 190 1.7 3.5 0.00 0.00 0.00 68 1012.4
20260903060027 85 132 2.6 4.3 0.00 0.00 0.00 68 1012.4
20260903055526 85 232 0.9 4.3 0.00 0.00 0.00 67 1012.5
20260903055026 85 261 1.7 3.5 0.00 0.00 0.00 66 1012.5
20260903054526 85 131 0.0 7.0 0.00 0.00 0.00 66 1012.4
20260903054026 85 109 3.5 7.8 0.00 0.00 0.00 65 1012.5
20260903053526 86 148 5.2 8.7 0.00 0.00 0.00 65 1012.4
20260903053026 86 144 1.7 8.7 0.00 0.00 0.00 64 1012.4
20260903052526 86 113 5.2 8.7 0.00 0.00 0.00 63 1012.3
20260903052026 86 134 4.3 15.6 0.00 0.00 0.00 63 1012.3
20260903051026 86 267 1.7 11.3 0.00 0.00 0.00 61 1012.3
20260903050526 86 149 2.6 7.0 0.00 0.00 0.00 60 1012.4
20260903045526 87 154 3.5 5.2 0.00 0.00 0.00 59 1012.4
20260903045026 87 141 1.7 7.0 0.00 0.00 0.00 59 1012.3
20260903044526 87 105 7.0 7.8 0.00 0.00 0.00 58 1012.3
20260903044026 87 125 2.6 7.8 0.00 0.00 0.00 58 1012.2
20260903043526 87 103 1.7 6.1 0.00 0.00 0.00 58 1012.1
20260903043026 87 121 3.5 10.4 0.00 0.00 0.00 58 1012.1
20260903042525 87 128 10.4 10.4 0.00 0.00 0.00 58 1012.1
20260903042025 87 114 2.6 4.3 0.00 0.00 0.00 59 1011.9
20260903041025 88 250 0.0 8.7 0.00 0.00 0.00 60 1011.9
20260903040525 88 130 1.7 8.7 0.00 0.00 0.00 60 1012.0
20260903040025 88 105 3.5 7.0 0.00 0.00 0.00 59 1012.0
20260903035525 88 126 4.3 7.0 0.00 0.00 0.00 59 1011.9
20260903035025 88 182 1.7 8.7 0.00 0.00 0.00 58 1011.9
20260903034525 89 108 8.7 8.7 0.00 0.00 0.00 58 1011.9
20260903034025 89 107 1.7 8.7 0.00 0.00 0.00 58 1011.8
20260903033525 89 90 3.5 9.6 0.00 0.00 0.00 57 1011.9
20260903032525 90 169 6.1 11.3 0.00 0.00 0.00 56 1011.9
20260903032025 90 128 2.6 11.3 0.00 0.00 0.00 55 1011.8
20260903031524 90 130 7.8 11.3 0.00 0.00 0.00 55 1011.8
20260903031025 90 109 1.7 6.1 0.00 0.00 0.00 54 1011.6
20260903030525 90 206 3.5 6.1 0.00 0.00 0.00 53 1011.6
20260903030024 90 132 3.5 6.1 0.00 0.00 0.00 53 1011.4
20260903025525 90 94 0.9 2.6 0.00 0.00 0.00 53 1011.1
20260903025024 90 74 1.7 1.7 0.00 0.00 0.00 52 1011.0
20260903024524 90 110 0.0 3.5 0.00 0.00 0.00 52 1010.8
20260903024024 90 117 3.5 6.1 0.00 0.00 0.00 52 1010.7
20260903023024 91 97 0.0 2.6 0.00 0.00 0.00 52 1010.5
20260903022524 91 117 0.9 2.6 0.00 0.00 0.00 52 1010.4
20260903022024 91 113 0.0 2.6 0.00 0.00 0.00 52 1010.4
20260903021524 91 157 1.7 2.6 0.00 0.00 0.00 51 1010.3
20260903021024 92 123 1.7 4.3 0.00 0.00 0.00 51 1010.2
20260903020024 92 110 0.9 1.7 0.00 0.00 0.00 51 1010.1
20260903015524 92 148 0.9 2.6 0.00 0.00 0.00 49 1010.0
20260903015023 92 148 0.9 2.6 0.00 0.00 0.00 49 1009.9
20260903014524 93 50 0.0 6.1 0.00 0.00 0.00 49 1009.7
20260903014024 93 115 5.2 6.1 0.00 0.00 0.00 48 1009.7
20260903013524 93 319 0.9 1.7 0.00 0.00 0.00 47 1009.5
20260903013024 93 52 0.0 0.9 0.00 0.00 0.00 47 1009.5
20260903012023 94 87 0.0 0.0 0.00 0.00 0.00 46 1009.5
20260903011523 94 87 0.0 2.6 0.00 0.00 0.00 46 1009.5
20260903011024 94 15 0.0 2.6 0.00 0.00 0.00 46 1009.6
20260903010523 95 53 0.9 2.6 0.00 0.00 0.00 45 1009.6
20260903005523 96 57 0.9 1.7 0.00 0.00 0.00 44 1009.5
20260903005023 96 46 1.7 3.5 0.00 0.00 0.00 44 1009.5
20260903004523 97 107 0.9 3.5 0.00 0.00 0.00 43 1009.6
20260903003523 98 161 1.7 5.2 0.00 0.00 0.00 41 1009.6
20260903003023 99 355 0.9 5.2 0.00 0.00 0.00 41 1009.7
20260903002523 99 148 0.0 0.0 0.00 0.00 0.00 40 1009.5
20260903002023 99 148 0.0 0.0 0.00 0.00 0.00 40 1009.4
20260903001523 100 148 0.0 1.7 0.00 0.00 0.00 39 1009.5
20260903001022 100 148 1.7 1.7 0.00 0.00 0.00 39 1009.5
20260903000522 100 138 0.9 1.7 0.00 0.00 0.00 39 1009.4
20260903000022 100 138 0.0 1.7 0.00 0.00 0.00 39 1009.4